Wetbulb
54.27 54.44 54.68 54.72 55.28 55.47 55.18 55.38 56.02 56.24 54.94 53.77 54.42 54.68 55.24 53.16 53.78 54.81 54.71 52.79 51.32 52.26 52.46 51.18 50.41 51.13 49.65 49.45 48.55 48.31 47.06 47.13 43.99 45.75 47.79 48.74 50.00 50.26 50.09 51.42 50.85 50.59 50.37
54.43 54.64 54.40 55.85 55.75 56.17 55.89 56.50 56.64 56.17 54.97 54.00 54.72 54.24 53.91 52.53 52.92 52.28 52.01 53.28 51.89 50.79 51.80 50.40 50.26 50.69 50.13 49.07 47.49 46.86 45.97 47.24 45.05 42.61 45.61 46.78 47.71 48.76 49.39 47.80 50.29 50.73 49.96
54.65 53.96 55.44 55.97 56.59 55.72 55.61 54.19 56.42 55.74 55.22 54.07 53.93 53.33 52.82 50.95 50.38 50.73 51.43 51.81 52.72 50.56 49.81 50.07 50.27 49.40 47.86 47.32 46.18 44.53 44.98 45.07 44.69 43.93 44.10 46.58 47.27 47.28 47.67 48.65 48.13 48.41 49.49
54.73 54.32 54.95 55.94 56.14 56.46 55.45 55.94 55.17 53.92 53.41 54.10 53.68 53.41 52.24 49.71 49.01 49.40 50.39 51.36 51.70 50.38 51.28 50.66 50.06 48.69 47.35 45.68 43.57 43.91 43.75 43.87 44.70 44.26 44.11 44.31 46.04 46.83 47.47 45.14 44.82 46.22 45.78
54.10 53.87 54.96 55.52 56.29 55.99 55.56 56.46 54.91 56.03 54.10 54.30 53.14 53.44 53.05 49.34 45.83 46.71 48.22 49.45 51.16 51.20 51.32 51.29 49.58 49.05 49.37 47.35 44.23 43.14 43.21 43.39 43.93 43.36 42.71 43.43 43.73 43.68 43.46 44.57 43.61 44.52 44.71
53.75 53.39 54.12 54.96 54.56 55.16 55.77 56.06 55.96 52.98 53.57 54.26 52.80 53.08 52.90 47.60 44.48 45.35 46.46 47.88 50.49 51.14 50.27 50.11 49.50 49.62 48.25 47.76 48.04 48.23 47.66 44.73 42.86 42.93 42.56 42.68 42.61 43.06 43.67 42.14 41.86 41.23 39.83
53.08 53.61 53.37 54.27 52.88 54.31 54.38 54.66 54.88 55.99 53.49 54.58 53.42 53.33 52.33 50.08 43.95 43.90 45.73 47.33 50.75 50.78 51.10 50.49 48.94 48.08 47.59 45.25 46.51 47.93 48.00 49.08 48.78 44.83 41.88 41.51 41.08 42.79 42.81 41.69 41.95 41.81 40.93
53.14 53.65 52.86 52.97 52.14 52.97 54.61 53.95 55.08 55.83 55.34 54.04 53.02 53.67 53.78 49.93 44.09 43.29 44.33 49.82 50.33 50.79 50.60 50.04 50.04 48.77 46.40 43.39 44.77 44.82 45.26 46.06 46.46 45.48 44.31 44.20 44.72 44.45 44.57 43.21 41.93 41.89 42.64
52.52 53.20 51.99 51.70 51.81 52.65 52.54 54.00 55.58 55.64 54.89 53.83 52.77 52.61 52.22 52.26 44.46 43.28 44.26 49.05 50.19 49.89 48.70 50.95 49.35 47.40 44.24 41.83 45.18 44.63 44.61 45.25 47.97 47.27 46.47 45.43 43.91 44.76 45.21 43.22 40.08 39.74 38.56
52.62 52.35 51.88 52.27 52.92 52.63 54.05 54.95 55.89 55.60 54.54 52.96 53.10 54.33 52.55 52.42 45.59 43.28 43.99 48.17 48.66 48.75 49.31 49.48 45.17 44.98 41.76 41.66 43.97 44.81 43.53 43.73 44.35 44.65 45.22 44.84 45.61 44.80 45.35 43.91 41.77 38.93 38.95
54.81 52.46 53.00 53.79 54.82 54.72 55.15 56.54 55.46 54.84 54.60 54.43 53.52 54.29 54.69 53.01 52.88 44.55 43.78 47.57 48.33 47.59 47.59 48.21 48.56 43.42 41.77 41.45 41.19 43.39 43.86 43.33 44.16 44.63 42.82 41.87 41.60 40.82 40.82 41.50 41.65 41.13 39.26
53.24 52.93 53.48 55.11 53.86 54.04 55.85 55.91 56.02 55.76 54.36 53.45 52.92 52.83 53.51 53.86 49.38 43.82 43.13 42.90 47.22 47.90 48.23 48.76 49.13 42.30 40.84 42.35 42.89 42.72 40.82 42.57 44.40 42.53 41.20 39.83 39.14 39.11 39.89 40.56 41.34 41.99 43.22
53.11 53.72 54.32 55.29 55.40 56.65 56.08 55.37 53.82 53.08 52.20 51.88 51.76 50.97 51.09 51.96 52.73 45.65 43.15 42.30 42.74 43.29 47.46 47.27 43.32 41.62 43.33 44.37 43.04 42.36 43.95 43.78 41.51 39.77 38.99 38.38 38.87 39.77 40.33 40.54 41.31 42.72 43.66
52.85 54.10 55.31 55.40 55.49 56.97 54.35 53.53 53.30 54.08 52.27 51.07 50.42 50.25 50.84 51.40 52.72 52.24 50.13 50.15 46.40 46.92 47.62 46.54 46.55 44.69 44.72 44.66 45.75 46.02 45.33 42.74 40.74 39.21 38.40 39.36 39.61 39.16 39.22 40.09 39.57 39.90 39.62
53.51 54.38 54.93 54.28 53.45 54.26 53.83 53.90 54.14 56.39 53.14 51.55 50.55 50.74 50.19 50.43 47.12 42.81 42.04 44.97 44.41 43.74 40.38 46.96 48.46 47.36 46.04 45.05 45.21 45.36 44.16 42.76 40.52 39.67 38.48 37.89 37.82 38.25 38.22 39.32 39.56 39.77 39.20
54.00 53.01 52.95 53.30 54.41 53.71 54.06 55.16 46.96 45.72 44.28 41.91 41.61 45.66 50.75 43.08 39.69 39.20 38.96 38.57 37.73 37.88 45.93 46.47 46.11 45.14 43.88 43.33 44.04 43.49 44.12 42.02 40.75 39.59 38.38 37.92 37.78 37.57 37.87 38.54 39.72 39.46 39.43
54.91 53.99 53.96 51.96 52.68 53.22 54.75 53.00 52.40 51.90 42.89 41.70 39.85 38.92 38.86 40.53 39.14 38.27 38.69 37.69 37.88 40.59 47.76 44.77 44.40 43.96 43.77 43.73 43.72 43.58 42.35 41.79 41.06 39.75 38.43 37.95 38.28 38.44 38.03 38.46 39.48 39.79 39.13
54.98 46.22 52.58 52.22 52.73 54.46 53.85 53.69 52.51 52.30 53.19 51.93 43.01 42.30 40.33 39.36 39.03 38.90 38.55 39.81 47.80 44.47 46.63 44.31 43.50 43.83 43.66 43.88 44.19 43.51 41.91 41.18 39.69 39.28 38.57 38.16 38.28 37.96 38.29 38.73 39.15 38.87 38.71
53.42 53.46 53.84 52.55 53.80 53.02 52.85 52.30 52.44 53.08 52.63 50.51 47.86 43.91 43.35 39.89 39.63 39.09 38.53 48.45 45.30 44.88 44.40 43.77 44.45 44.14 43.93 44.46 43.78 43.34 41.57 39.90 38.61 38.76 38.26 37.77 37.87 38.13 38.08 39.21 39.74 38.01 37.40
54.24 48.56 47.16 53.05 52.08 52.62 53.06 52.60 51.72 52.46 50.97 50.16 49.38 48.25 48.67 47.90 48.23 48.33 46.97 46.34 45.48 45.03 45.11 44.26 44.52 44.62 44.30 44.19 43.40 42.12 40.69 39.08 38.19 37.56 37.18 37.20 37.28 37.75 37.95 39.18 40.48 40.34 40.80
53.55 54.28 48.37 51.34 52.09 52.76 52.58 51.78 52.35 50.14 48.75 48.24 48.97 46.39 35.37 48.03 47.76 47.05 46.44 45.56 45.43 45.06 45.18 44.67 44.20 44.63 44.66 43.70 42.09 40.91 39.23 38.05 37.51 37.00 36.16 36.13 36.85 37.24 39.20 40.84 42.11 42.78 42.94
52.95 52.71 52.96 53.06 53.46 52.50 52.52 52.78 49.40 48.43 47.30 47.28 48.04 46.68 36.58 47.82 47.42 46.48 45.64 45.73 45.68 45.87 45.86 44.92 44.45 44.82 44.47 42.83 40.83 39.30 37.81 36.85 36.65 36.10 35.23 36.07 37.69 39.36 41.21 42.69 43.73 44.21 44.12
53.15 52.99 52.86 53.42 53.28 49.32 51.88 50.22 48.13 47.23 46.89 47.00 46.96 46.88 46.73 46.55 46.19 45.54 45.16 45.41 45.95 45.81 45.51 45.81 45.43 44.59 43.16 41.78 40.46 38.29 36.93 36.65 36.16 35.41 34.85 36.44 37.72 39.38 41.85 43.20 44.96 44.84 44.41
52.50 52.61 52.09 52.70 51.67 51.15 49.15 48.27 47.52 43.82 45.76 45.88 46.34 46.18 45.94 46.01 45.11 45.06 45.48 45.19 45.48 45.18 45.93 46.21 45.91 43.03 40.80 40.06 38.69 37.11 37.72 36.68 34.88 35.79 37.48 37.95 39.36 42.20 45.00 45.75 45.70 45.21 45.04
51.65 53.56 52.89 52.30 50.36 48.72 47.97 47.05 46.43 46.41 45.56 45.08 45.14 45.22 45.66 45.05 44.73 44.51 44.65 45.46 44.63 45.54 45.56 46.05 45.43 42.43 42.20 39.85 37.77 36.62 35.42 32.91 33.74 33.59 37.30 40.45 42.95 44.43 46.72 46.32 45.96 45.13 44.69
52.58 52.73 51.52 50.21 48.63 47.53 46.80 46.14 45.02 45.13 44.35 43.92 44.67 45.13 45.19 44.62 44.99 44.13 44.43 43.87 44.59 45.01 45.17 45.33 45.18 42.40 40.67 38.67 36.36 33.36 33.35 32.97 34.37 33.44 35.82 39.49 44.59 47.07 46.84 46.20 46.38 45.07 45.03
MSLP
1020.16 1020.65 1020.72 1020.61 1020.57 1020.67 1020.58 1020.58 1020.44 1020.32 1020.32 1020.23 1020.07 1019.81 1019.53 1019.58 1019.53 1019.35 1019.07 1018.96 1018.91 1018.78 1018.64 1018.45 1018.41 1018.28 1018.14 1017.93 1017.76 1017.46 1017.14 1016.79 1016.38 1015.74 1015.24 1014.61 1014.06 1013.69 1013.58 1013.29 1013.15 1013.08 1012.52
1020.10 1020.37 1020.54 1020.33 1020.50 1020.49 1020.50 1020.42 1020.21 1020.24 1020.25 1020.30 1020.14 1019.95 1019.84 1020.02 1019.99 1019.84 1019.58 1019.30 1019.10 1018.91 1018.81 1018.85 1018.74 1018.56 1018.56 1018.47 1018.39 1018.09 1017.61 1017.02 1016.79 1016.07 1015.30 1014.70 1014.03 1013.47 1013.49 1013.81 1013.57 1012.82 1012.42
1019.96 1020.18 1020.22 1020.22 1020.33 1020.41 1020.43 1020.35 1020.22 1020.12 1020.20 1020.29 1020.24 1020.17 1020.13 1020.43 1020.59 1020.36 1020.09 1019.70 1019.38 1019.34 1019.22 1019.08 1018.97 1019.02 1019.15 1019.04 1018.81 1018.41 1017.89 1017.39 1016.87 1016.22 1015.33 1014.39 1013.75 1013.53 1013.75 1013.71 1013.82 1013.06 1012.29
1019.70 1019.93 1019.96 1020.11 1020.22 1020.23 1020.24 1020.21 1020.22 1020.28 1020.21 1020.30 1020.33 1020.30 1020.37 1020.75 1021.05 1020.92 1020.56 1020.11 1019.58 1019.44 1019.32 1019.15 1019.15 1019.15 1019.24 1019.13 1018.80 1018.48 1018.01 1017.58 1016.76 1016.10 1015.39 1014.86 1014.28 1014.01 1013.84 1013.83 1013.40 1012.76 1012.20
1019.51 1019.89 1019.97 1020.12 1019.97 1020.08 1020.32 1020.19 1020.27 1020.28 1020.29 1020.33 1020.42 1020.45 1020.55 1020.98 1021.46 1021.45 1021.07 1020.41 1019.91 1019.43 1019.26 1019.05 1018.89 1018.97 1018.91 1018.91 1018.76 1018.40 1017.96 1017.37 1016.64 1016.02 1015.62 1015.22 1014.74 1014.28 1014.22 1013.81 1013.36 1012.73 1012.01
1019.43 1019.86 1020.06 1019.99 1019.74 1020.00 1020.15 1020.21 1020.21 1020.18 1020.36 1020.47 1020.57 1020.55 1020.74 1021.34 1021.61 1021.43 1021.08 1020.52 1019.84 1019.32 1018.96 1018.78 1018.70 1018.60 1018.73 1018.69 1018.54 1018.06 1017.44 1016.93 1016.39 1016.04 1015.75 1015.36 1014.84 1014.48 1013.98 1013.77 1013.30 1012.86 1012.24
1019.33 1019.57 1019.88 1019.69 1019.75 1019.88 1020.06 1020.15 1020.32 1020.30 1020.37 1020.59 1020.68 1020.69 1020.85 1021.35 1021.29 1021.11 1020.65 1020.24 1019.71 1019.15 1018.71 1018.64 1018.51 1018.45 1018.59 1018.57 1018.20 1017.79 1017.13 1016.46 1015.94 1015.67 1015.45 1015.13 1014.71 1014.20 1013.94 1013.61 1013.36 1013.08 1012.48
1019.15 1019.19 1019.41 1019.63 1019.70 1019.79 1019.88 1020.20 1020.44 1020.45 1020.50 1020.62 1020.65 1020.63 1020.67 1020.89 1020.77 1020.55 1020.21 1019.74 1019.29 1018.89 1018.61 1018.27 1018.13 1018.17 1018.24 1018.24 1017.85 1017.43 1016.89 1016.34 1015.71 1015.26 1015.01 1014.67 1014.28 1013.95 1013.74 1013.50 1013.21 1012.80 1012.21
1019.04 1019.03 1019.28 1019.58 1019.57 1019.74 1020.02 1020.38 1020.54 1020.49 1020.42 1020.41 1020.21 1020.18 1020.14 1020.16 1020.27 1020.24 1020.12 1019.69 1019.00 1018.73 1018.37 1017.91 1017.83 1018.13 1018.06 1017.90 1017.38 1017.17 1016.58 1015.90 1015.14 1014.79 1014.51 1014.16 1013.78 1013.64 1013.79 1013.50 1013.04 1012.86 1012.34
1018.93 1019.01 1019.36 1019.58 1019.69 1019.94 1020.14 1020.35 1020.44 1020.35 1020.21 1019.94 1019.74 1019.66 1019.65 1019.69 1019.75 1019.80 1019.78 1019.42 1018.97 1018.57 1018.17 1017.95 1018.35 1018.22 1017.81 1017.28 1017.17 1016.87 1016.33 1015.72 1015.15 1014.66 1014.40 1014.02 1013.92 1013.93 1013.51 1013.44 1013.20 1013.01 1012.55
1018.74 1019.13 1019.39 1019.65 1019.78 1019.88 1020.04 1020.13 1020.20 1020.05 1019.79 1019.68 1019.40 1019.07 1018.95 1019.01 1018.96 1019.18 1019.32 1019.27 1018.77 1018.50 1018.09 1017.72 1017.64 1017.69 1017.24 1017.09 1016.82 1016.44 1015.85 1015.54 1015.38 1014.98 1014.56 1014.29 1014.10 1013.95 1013.84 1013.73 1013.42 1012.99 1012.56
1018.88 1019.08 1019.31 1019.55 1019.61 1019.66 1019.69 1019.76 1019.67 1019.54 1019.39 1019.05 1018.79 1018.47 1018.02 1017.91 1017.95 1018.74 1018.62 1018.62 1018.37 1018.30 1017.77 1017.35 1017.25 1017.27 1016.95 1016.53 1016.71 1015.95 1015.61 1015.63 1015.57 1015.16 1014.83 1014.72 1014.51 1014.24 1013.94 1013.63 1013.08 1012.54 1012.04
1018.98 1019.08 1019.13 1019.24 1019.31 1019.35 1019.39 1019.39 1019.27 1018.99 1018.80 1018.53 1018.01 1017.76 1017.65 1017.52 1017.73 1018.19 1018.38 1018.42 1018.12 1018.24 1017.97 1017.60 1017.28 1017.15 1016.86 1016.42 1015.95 1015.47 1015.68 1015.88 1016.00 1015.71 1015.38 1015.18 1014.93 1014.43 1013.94 1013.38 1012.67 1011.99 1011.32
1019.03 1019.04 1019.00 1019.07 1019.24 1019.17 1019.12 1018.86 1018.71 1018.48 1018.39 1018.21 1018.03 1017.86 1017.74 1017.81 1017.82 1018.26 1018.36 1018.21 1017.94 1018.04 1017.84 1017.30 1016.98 1016.71 1016.92 1016.01 1015.42 1015.15 1015.59 1016.19 1016.36 1016.10 1015.68 1015.30 1014.86 1014.34 1013.78 1013.23 1012.64 1012.02 1011.41
1018.83 1018.80 1018.81 1018.70 1018.82 1018.70 1018.61 1018.32 1018.10 1017.88 1017.83 1017.78 1017.64 1017.58 1017.65 1017.94 1018.58 1018.66 1018.68 1018.49 1018.34 1017.93 1017.74 1017.16 1016.74 1016.67 1016.12 1015.64 1015.21 1015.17 1015.58 1016.02 1016.04 1016.00 1015.66 1015.25 1014.77 1014.26 1013.67 1013.06 1012.54 1011.87 1011.32
1018.51 1018.53 1018.46 1018.29 1018.04 1018.03 1017.73 1017.46 1017.28 1017.23 1017.27 1017.07 1016.96 1017.42 1017.84 1018.28 1018.44 1018.52 1018.70 1018.49 1018.06 1017.93 1017.69 1017.38 1016.76 1016.24 1016.08 1015.69 1015.20 1015.30 1015.28 1015.99 1016.10 1015.92 1015.58 1015.17 1014.67 1014.11 1013.56 1012.95 1012.38 1011.78 1011.15
1018.25 1018.34 1018.00 1018.08 1017.85 1017.56 1017.26 1017.14 1016.91 1016.52 1016.53 1016.33 1016.88 1017.67 1018.26 1018.37 1018.13 1018.51 1018.55 1018.31 1017.93 1018.02 1017.75 1016.99 1016.66 1016.51 1016.13 1015.69 1015.39 1015.19 1015.76 1016.30 1016.09 1015.80 1015.46 1014.96 1014.55 1013.99 1013.41 1012.81 1012.19 1011.61 1011.08
1018.23 1018.64 1018.21 1017.84 1017.42 1017.16 1017.01 1016.76 1016.50 1016.24 1016.09 1016.44 1016.69 1017.73 1017.90 1017.88 1017.85 1018.31 1018.35 1018.14 1017.72 1017.52 1017.00 1016.92 1016.84 1016.66 1016.36 1015.89 1015.56 1015.73 1016.23 1016.35 1016.08 1015.69 1015.23 1014.85 1014.41 1013.93 1013.24 1012.63 1012.02 1011.55 1011.19
1017.93 1017.90 1017.97 1017.68 1017.18 1016.93 1016.79 1016.40 1016.05 1015.90 1015.97 1016.49 1017.46 1017.96 1017.83 1017.47 1017.84 1018.31 1018.42 1017.91 1017.56 1017.63 1017.39 1017.23 1017.08 1016.90 1016.52 1016.02 1016.23 1016.37 1016.71 1016.49 1016.21 1015.70 1015.26 1014.88 1014.36 1013.79 1013.13 1012.51 1011.93 1011.47 1011.10
1017.81 1017.82 1017.80 1017.47 1017.15 1016.69 1016.16 1015.82 1015.94 1016.01 1016.23 1016.56 1017.17 1017.62 1017.49 1017.49 1017.69 1018.02 1018.33 1018.05 1017.86 1017.80 1017.75 1017.73 1017.41 1017.08 1016.79 1016.90 1017.01 1017.11 1016.80 1016.56 1016.21 1015.76 1015.35 1014.89 1014.28 1013.74 1013.08 1012.40 1011.81 1011.20 1010.68
1017.13 1017.09 1017.45 1017.10 1016.77 1016.29 1016.10 1016.25 1016.32 1016.55 1016.79 1016.95 1017.31 1017.85 1017.84 1017.76 1017.92 1018.32 1018.48 1018.39 1018.19 1018.26 1018.26 1018.03 1017.80 1017.43 1017.49 1017.59 1017.61 1017.26 1017.02 1016.69 1016.33 1015.89 1015.47 1014.90 1014.29 1013.56 1012.80 1012.10 1011.43 1010.73 1010.02
1016.75 1016.55 1016.65 1016.44 1016.14 1016.09 1016.37 1016.53 1016.90 1017.20 1017.44 1017.47 1017.60 1017.94 1018.03 1018.27 1018.65 1019.05 1019.19 1019.00 1018.94 1018.78 1018.63 1018.41 1018.07 1018.09 1018.20 1018.15 1017.84 1017.55 1017.25 1016.87 1016.42 1016.05 1015.52 1014.89 1014.11 1013.25 1012.37 1011.51 1010.79 1010.10 1009.43
1016.48 1016.05 1015.91 1016.04 1016.04 1016.38 1016.69 1017.20 1017.50 1017.82 1018.03 1018.04 1018.22 1018.35 1018.65 1018.98 1019.40 1019.65 1019.55 1019.66 1019.41 1019.16 1018.82 1018.45 1018.38 1018.59 1018.71 1018.47 1018.11 1017.89 1017.55 1017.03 1016.63 1016.21 1015.50 1014.64 1013.81 1012.95 1011.95 1011.15 1010.21 1009.60 1009.08
1016.39 1015.85 1015.82 1015.93 1016.54 1016.84 1017.39 1017.73 1018.10 1018.35 1018.56 1018.73 1018.92 1019.08 1019.32 1019.70 1020.00 1020.20 1020.29 1020.29 1019.83 1019.41 1018.98 1018.69 1018.82 1019.17 1019.08 1018.76 1018.41 1017.98 1017.49 1017.06 1016.53 1015.75 1015.21 1014.54 1013.51 1012.42 1011.45 1010.47 1009.85 1009.44 1009.12
1016.21 1015.72 1016.01 1016.49 1017.07 1017.63 1018.04 1018.48 1018.83 1018.99 1019.23 1019.47 1019.62 1019.80 1019.88 1020.37 1020.74 1020.93 1020.93 1020.44 1020.14 1019.53 1019.10 1019.06 1019.23 1019.46 1019.19 1018.98 1018.60 1018.09 1017.39 1016.65 1016.05 1015.31 1014.66 1013.84 1012.99 1012.05 1010.61 1010.16 1009.78 1009.48 1009.18
1015.86 1016.11 1016.72 1017.44 1017.97 1018.43 1018.92 1019.23 1019.63 1019.73 1019.96 1020.32 1020.32 1020.48 1020.57 1020.75 1021.06 1021.30 1021.16 1020.79 1020.37 1019.85 1019.50 1019.50 1019.51 1019.79 1019.66 1019.25 1018.82 1018.11 1017.32 1016.27 1015.20 1014.51 1014.16 1013.36 1012.35 1011.33 1010.74 1010.34 1009.91 1009.61 1009.24
Wind_Speed
8 6 4 1 4 4 4 4 3 4 5 5 5 5 5 5 5 6 6 6 6 5 5 6 9 8 6 6 8 8 8 6 7 8 8 9 6 4 3 4 5 9 4
7 6 4 3 4 4 3 2 3 3 5 5 5 5 7 8 8 8 8 7 6 6 7 8 5 6 7 7 7 8 8 9 8 11 8 9 6 6 1 5 6 7 7
7 5 5 4 4 4 4 5 4 4 5 4 5 5 6 8 8 9 8 8 6 7 6 6 6 7 7 6 7 8 8 8 9 9 10 7 7 2 4 4 6 8 7
6 5 4 3 2 2 2 1 1 5 3 4 4 5 6 8 7 8 9 10 5 5 5 5 5 6 5 5 7 7 8 9 9 9 9 9 7 6 4 4 5 4 5
7 3 4 1 3 3 3 3 1 1 4 5 4 4 5 6 5 6 7 9 7 3 2 4 5 7 10 10 6 9 9 8 8 8 8 9 8 8 7 4 4 7 7
8 5 4 6 2 3 0 2 3 3 3 4 3 4 5 5 5 7 5 7 8 5 2 2 5 6 8 9 11 16 13 6 7 6 5 6 6 7 4 6 7 7 7
6 7 7 4 1 1 3 2 3 2 3 3 3 4 4 5 2 7 10 6 7 6 6 3 4 5 5 6 8 15 12 13 9 7 7 9 10 9 5 6 8 8 8
6 6 4 3 3 2 1 4 3 4 3 2 3 1 1 4 4 4 9 6 8 5 7 3 2 3 2 5 5 8 11 12 10 6 5 8 10 7 5 4 5 7 7
7 6 4 3 2 3 5 3 1 2 1 4 4 4 5 4 9 5 4 7 5 5 8 6 2 3 4 9 4 9 12 11 10 10 11 13 4 4 6 6 5 6 6
8 5 4 3 3 4 3 2 0 3 3 4 3 6 6 6 9 10 6 4 6 4 7 2 2 6 9 6 4 7 9 10 12 10 9 8 6 10 14 7 3 5 5
3 5 5 4 2 3 3 3 2 5 4 5 7 7 7 9 10 12 10 5 5 3 6 5 5 9 12 12 8 8 11 10 10 9 9 8 8 8 7 7 9 5 7
5 6 5 4 5 5 4 4 5 6 7 9 10 10 8 11 17 11 15 12 8 5 6 5 5 11 9 10 13 13 12 6 6 8 8 8 8 7 7 8 9 9 7
5 5 5 5 4 4 3 5 5 6 9 8 6 5 5 6 4 11 11 11 12 5 6 9 15 7 11 8 6 12 7 6 7 8 7 7 7 7 9 8 9 9 7
6 6 4 2 3 2 4 5 5 4 4 5 4 4 4 4 2 0 3 4 7 5 3 7 8 4 9 12 6 5 6 6 6 5 6 6 6 6 7 6 6 7 6
7 6 4 5 6 6 8 7 5 5 5 4 5 4 3 3 4 3 3 4 4 4 7 6 4 6 4 7 7 7 6 6 8 6 6 7 6 6 7 6 6 6 5
5 5 5 5 2 6 5 5 14 14 11 13 14 4 3 7 5 5 7 7 9 4 4 7 5 6 8 9 8 8 5 9 7 6 6 6 7 6 7 7 6 6 6
3 4 0 2 4 5 3 4 4 6 16 16 7 11 4 8 11 6 7 7 12 3 3 4 7 7 7 8 8 6 7 9 8 6 6 6 7 7 6 7 6 7 6
3 2 4 6 5 3 3 4 6 6 4 6 5 5 8 12 7 3 7 6 4 1 3 8 8 9 9 10 8 8 7 9 8 7 6 7 6 6 7 7 6 5 5
5 4 3 5 7 4 5 7 7 4 5 7 6 1 6 9 3 1 4 4 5 9 8 7 8 8 9 9 9 9 10 8 7 7 6 6 6 6 7 7 6 7 6
3 5 4 4 6 7 7 3 6 6 7 7 7 6 6 9 6 1 3 8 8 8 10 9 8 9 9 9 10 9 9 8 7 6 7 6 7 6 7 7 7 6 6
5 6 8 5 7 7 5 6 5 7 8 7 6 4 5 5 7 9 7 7 8 8 7 8 8 9 9 9 10 9 7 7 6 7 7 7 7 7 7 6 6 7 7
6 4 7 8 7 3 5 5 8 8 8 7 7 5 10 8 8 8 7 7 7 8 8 7 7 8 10 10 8 7 7 7 7 7 7 7 7 7 7 7 8 7 7
7 6 4 4 4 6 7 7 7 6 6 7 7 7 8 7 8 7 7 7 7 6 6 6 7 8 9 8 7 6 7 7 7 7 7 8 8 7 9 9 8 5 4
9 6 3 5 6 8 7 7 6 6 7 7 7 7 7 8 8 9 9 6 6 7 8 6 8 12 9 8 7 7 6 7 7 8 9 8 9 11 9 6 5 6 5
9 1 6 7 9 7 7 6 7 7 7 7 7 7 7 7 8 8 7 7 7 6 8 8 8 12 14 13 13 15 14 12 10 10 7 9 12 14 6 5 4 3 4
2 7 9 8 7 7 6 6 7 6 7 7 6 7 7 7 9 6 5 6 8 7 9 9 12 15 18 12 16 17 15 16 14 12 6 6 8 6 4 6 8 5 5
Wind_Direction
111 114 109 127 75 49 73 62 54 70 28 12 8 350 360 65 354 345 343 27 10 359 5 348 17 34 12 16 357 351 340 348 329 325 317 309 310 311 318 351 330 304 320
119 136 148 125 126 117 88 73 61 55 71 17 4 348 38 33 19 6 3 352 14 355 14 40 21 23 11 18 1 333 332 332 337 320 318 308 286 291 36 318 316 319 290
134 151 196 140 106 66 358 20 357 12 86 48 350 19 50 48 20 360 353 340 4 33 30 14 6 42 27 9 338 337 338 333 317 303 299 302 307 15 0 17 301 287 318
149 163 158 113 114 65 19 158 297 19 23 56 359 38 65 67 23 355 341 323 53 23 10 357 48 52 46 7 353 335 326 315 315 317 320 326 344 333 358 326 319 297 305
137 190 111 249 175 102 34 342 52 263 359 60 12 56 66 68 21 350 329 331 323 358 29 349 29 57 56 21 350 326 314 312 309 311 320 326 324 340 337 310 312 300 289
137 162 178 263 186 90 318 328 358 57 72 52 17 360 78 64 345 325 327 315 317 322 326 322 325 73 37 349 341 316 303 315 335 335 319 306 310 317 315 330 318 335 321
153 190 194 225 271 136 291 28 35 353 35 45 3 339 94 111 334 333 332 316 296 301 322 321 344 68 35 337 335 325 326 316 330 322 323 319 310 308 343 324 326 316 304
176 221 167 204 237 180 212 64 14 8 30 53 282 285 73 175 219 309 318 312 306 349 324 349 324 71 40 291 316 325 321 322 320 325 318 308 307 333 332 317 302 301 304
199 189 163 188 200 105 79 80 21 275 235 246 217 228 229 225 219 229 306 309 326 347 321 291 316 359 308 260 353 328 322 313 320 329 331 323 332 347 284 291 334 314 308
216 131 164 183 131 110 120 105 263 297 229 277 239 242 235 240 205 218 229 278 304 335 316 181 281 278 273 321 324 307 310 324 325 335 322 346 15 0 355 344 335 328 320
194 159 159 170 174 146 170 208 214 254 262 263 266 260 238 222 241 206 212 248 275 321 320 320 309 239 346 329 316 300 291 326 336 332 339 348 340 341 347 338 322 323 301
181 187 168 178 244 168 179 228 251 250 254 255 250 257 260 236 235 184 221 218 255 260 287 299 313 348 309 345 321 290 310 339 353 343 343 347 336 335 330 316 302 292 275
197 202 199 201 222 228 226 252 264 255 240 275 296 6 359 3 41 178 232 238 255 252 281 304 306 312 325 311 269 320 69 34 3 349 335 333 324 319 311 307 307 300 308
192 219 223 223 248 256 290 276 237 271 347 318 325 317 317 332 50 103 321 294 269 273 315 317 339 55 289 262 321 3 80 48 5 338 325 317 312 315 315 317 317 315 310
205 218 222 225 199 229 224 251 260 237 227 245 249 250 279 314 47 22 23 341 345 307 322 302 350 322 301 348 351 356 86 26 7 339 328 322 316 314 319 317 308 303 286
207 214 230 254 274 234 244 245 228 238 230 241 244 246 57 105 95 7 336 322 283 317 318 339 314 359 7 337 338 359 47 17 355 333 323 319 315 316 315 315 307 310 318
248 318 207 254 262 261 285 290 308 265 241 244 247 103 130 262 290 360 328 314 287 136 281 289 21 7 339 336 342 357 44 5 339 327 320 316 318 311 311 315 318 332 336
202 235 286 294 300 299 290 301 281 280 312 67 64 187 216 244 267 278 308 302 353 97 349 21 16 358 352 341 6 28 26 351 338 327 321 320 317 315 316 314 311 302 324
206 241 236 253 267 313 290 274 281 0 3 95 114 209 229 249 187 236 322 332 22 26 25 6 12 354 345 359 16 21 357 338 327 327 326 322 317 314 311 304 312 320 307
248 259 252 295 297 289 282 351 8 7 29 31 69 34 21 1 43 135 98 34 28 21 15 18 357 357 358 17 15 349 333 334 331 327 324 319 313 312 305 309 312 304 292
234 193 221 239 256 275 39 11 9 36 23 11 79 48 4 8 37 48 35 16 19 26 17 6 359 348 22 14 350 338 334 327 324 320 321 316 313 310 302 299 293 290 282
254 213 203 234 258 76 42 13 47 35 10 11 17 61 39 31 47 41 23 20 12 22 7 355 350 32 19 352 341 334 328 321 321 322 317 309 304 301 298 293 292 293 295
257 257 234 279 66 46 64 32 49 39 2 28 23 24 46 28 49 37 36 23 13 17 344 350 20 30 7 349 346 339 322 319 314 307 298 300 305 296 295 300 287 297 343
271 250 277 55 60 63 48 42 39 45 35 31 32 31 41 36 43 36 40 11 354 349 337 27 47 30 5 354 345 334 320 319 305 289 288 295 288 300 302 300 356 8 22
263 127 64 60 56 48 46 42 43 42 36 39 35 35 52 67 55 43 10 349 352 336 344 41 51 24 11 358 353 346 332 316 300 288 292 283 285 290 9 354 353 10 17
266 79 71 63 56 53 49 50 50 36 45 46 32 48 38 28 76 47 2 359 349 356 8 42 31 30 10 360 351 338 339 330 324 317 305 275 282 351 344 5 12 6 3